Location: Sobotiste
(48.7170°N, 17.4000°E)
Time: 09:57:39
(UTC+02:00)

YUBILEINY - Pass Details

Date: 16 March 2026
Orbit: 1477 x 1509 km, 82.5° (Epoch: 17 April)

Event Time Altitude Azimuth Distance (km) Brightness Sun altitude
Rises 03:05:01 0° 349° (N) 4,623 ? -28.5°
Reaches altitude 10° 03:07:54 10° 350° (N) 3,636 ? -28.1°
Maximum altitude 03:16:41 88° 261° (W) 1,486 ? -26.9°
Drops below altitude 10° 03:25:21 10° 174° (S) 3,606 ? -25.7°
Sets 03:28:12 0° 174° (S) 4,582 ? -25.3°
